| time (UTC) | temp F | wind direction | speed MPH | gust MPH | rain 1hr in | rain 24hr in | rain mn in | humidity % | barometer mb |
| 20260831213028 | 57 | 303 | 0.0 | 0.0 | 0.00 | 0.02 | 0.02 | 69 | 1005.3 |
| 20260831211536 | 57 | 360 | 0.0 | 0.0 | 0.00 | 0.02 | 0.02 | 71 | 1005.1 |
| 20260831210030 | 57 | 12 | 0.0 | 0.0 | 0.00 | 0.02 | 0.02 | 74 | 1005.1 |
| 20260831204527 | 57 | 12 | 0.0 | 0.0 | 0.00 | 0.03 | 0.02 | 76 | 1005.1 |
| 20260831203039 | 57 | 12 | 0.0 | 0.0 | 0.00 | 0.03 | 0.02 | 79 | 1005.2 |
| 20260831201524 | 57 | 12 | 0.0 | 0.0 | 0.00 | 0.03 | 0.02 | 80 | 1005.2 |
| 20260831200027 | 58 | 12 | 0.0 | 0.0 | 0.00 | 0.03 | 0.02 | 81 | 1005.1 |
| 20260831194524 | 59 | 12 | 0.0 | 2.0 | 0.00 | 0.03 | 0.02 | 81 | 1005.1 |
| 20260831193021 | 59 | 32 | 0.0 | 1.0 | 0.00 | 0.03 | 0.02 | 81 | 1005.0 |
| 20260831191523 | 60 | 32 | 0.0 | 0.0 | 0.00 | 0.03 | 0.02 | 81 | 1004.9 |
| 20260831190022 | 61 | 32 | 0.0 | 1.0 | 0.00 | 0.03 | 0.02 | 80 | 1004.9 |
| 20260831184524 | 62 | 32 | 0.0 | 2.0 | 0.00 | 0.03 | 0.02 | 78 | 1005.0 |
| 20260831183020 | 63 | 9 | 2.0 | 5.0 | 0.00 | 0.03 | 0.02 | 77 | 1005.2 |
| 20260831181520 | 63 | 38 | 0.0 | 3.0 | 0.00 | 0.03 | 0.02 | 75 | 1005.1 |
| 20260831180021 | 64 | 5 | 0.0 | 2.0 | 0.00 | 0.03 | 0.02 | 73 | 1005.0 |
| 20260831174519 | 65 | 8 | 0.0 | 1.0 | 0.00 | 0.03 | 0.02 | 72 | 1005.0 |
| 20260831173018 | 65 | 8 | 0.0 | 1.0 | 0.00 | 0.03 | 0.02 | 71 | 1004.9 |
| 20260831171518 | 66 | 8 | 0.0 | 2.0 | 0.00 | 0.03 | 0.02 | 70 | 1004.9 |
| 20260831170017 | 66 | 9 | 0.0 | 2.0 | 0.00 | 0.03 | 0.02 | 68 | 1005.0 |
| 20260831164523 | 67 | 23 | 1.0 | 3.0 | 0.00 | 0.03 | 0.02 | 66 | 1005.0 |
| 20260831163021 | 67 | 29 | 2.0 | 6.0 | 0.00 | 0.03 | 0.02 | 65 | 1004.9 |
| 20260831161516 | 68 | 360 | 2.0 | 7.0 | 0.00 | 0.03 | 0.02 | 64 | 1004.9 |
| 20260831160016 | 67 | 47 | 2.0 | 5.0 | 0.00 | 0.03 | 0.02 | 67 | 1004.7 |
| 20260831154515 | 67 | 38 | 1.0 | 5.0 | 0.00 | 0.06 | 0.02 | 68 | 1004.7 |
| 20260831153013 | 67 | 62 | 3.0 | 8.0 | 0.00 | 0.06 | 0.02 | 67 | 1004.8 |
| 20260831151514 | 68 | 14 | 3.0 | 8.0 | 0.00 | 0.06 | 0.02 | 67 | 1004.9 |
| 20260831150009 | 66 | 66 | 3.0 | 8.0 | 0.00 | 0.06 | 0.02 | 69 | 1004.9 |
| 20260831144509 | 66 | 14 | 3.0 | 8.0 | 0.00 | 0.07 | 0.02 | 71 | 1005.0 |
| 20260831143008 | 65 | 4 | 2.0 | 7.0 | 0.00 | 0.07 | 0.02 | 73 | 1005.2 |
| 20260831141507 | 65 | 43 | 2.0 | 6.0 | 0.00 | 0.07 | 0.02 | 74 | 1005.2 |
| 20260831140015 | 65 | 50 | 4.0 | 8.0 | 0.00 | 0.07 | 0.02 | 74 | 1005.3 |
| 20260831134507 | 65 | 52 | 4.0 | 9.0 | 0.00 | 0.09 | 0.02 | 73 | 1005.4 |
| 20260831133108 | 65 | 45 | 2.0 | 8.0 | 0.00 | 0.09 | 0.02 | 73 | 1005.2 |
| 20260831131504 | 65 | 47 | 6.0 | 10.0 | 0.00 | 0.09 | 0.02 | 71 | 1005.1 |
| 20260831130006 | 65 | 31 | 5.0 | 11.0 | 0.00 | 0.09 | 0.02 | 73 | 1005.1 |
| 20260831124504 | 65 | 52 | 5.0 | 9.0 | 0.00 | 0.09 | 0.02 | 72 | 1005.1 |
| 20260831123002 | 65 | 20 | 5.0 | 10.0 | 0.00 | 0.09 | 0.02 | 71 | 1005.2 |
| 20260831121503 | 66 | 13 | 5.0 | 11.0 | 0.00 | 0.09 | 0.02 | 69 | 1005.1 |
| 20260831120002 | 67 | 24 | 4.0 | 10.0 | 0.00 | 0.09 | 0.02 | 70 | 1005.0 |
| 20260831114600 | 65 | 68 | 7.0 | 13.0 | 0.00 | 0.09 | 0.02 | 69 | 1005.2 |
| 20260831113105 | 65 | 7 | 5.0 | 12.0 | 0.00 | 0.09 | 0.02 | 71 | 1005.2 |
| 20260831111612 | 65 | 67 | 5.0 | 12.0 | 0.00 | 0.09 | 0.02 | 71 | 1005.3 |
| 20260831110056 | 65 | 51 | 6.0 | 11.0 | 0.00 | 0.09 | 0.02 | 72 | 1005.4 |
| 20260831104555 | 65 | 48 | 4.0 | 12.0 | 0.00 | 0.09 | 0.02 | 73 | 1005.4 |
| 20260831103102 | 64 | 44 | 6.0 | 14.0 | 0.00 | 0.09 | 0.02 | 73 | 1005.3 |
| 20260831101556 | 64 | 63 | 6.0 | 11.0 | 0.00 | 0.09 | 0.02 | 72 | 1005.2 |
| 20260831100049 | 63 | 52 | 4.0 | 9.0 | 0.00 | 0.09 | 0.02 | 73 | 1005.1 |
| 20260831094548 | 62 | 79 | 3.0 | 10.0 | 0.00 | 0.13 | 0.02 | 75 | 1005.0 |
| 20260831093047 | 62 | 79 | 7.0 | 12.0 | 0.00 | 0.13 | 0.02 | 75 | 1004.8 |
| 20260831091557 | 62 | 57 | 4.0 | 9.0 | 0.00 | 0.13 | 0.02 | 76 | 1004.8 |
| 20260831090045 | 62 | 66 | 6.0 | 16.0 | 0.00 | 0.13 | 0.02 | 76 | 1004.9 |
| 20260831084543 | 62 | 52 | 6.0 | 15.0 | 0.00 | 0.17 | 0.02 | 77 | 1005.1 |
| 20260831083041 | 61 | 52 | 5.0 | 12.0 | 0.00 | 0.17 | 0.02 | 79 | 1005.2 |
| 20260831081543 | 60 | 80 | 4.0 | 11.0 | 0.00 | 0.17 | 0.02 | 80 | 1005.1 |
| 20260831080059 | 60 | 59 | 6.0 | 13.0 | 0.00 | 0.17 | 0.02 | 80 | 1005.2 |
| 20260831074539 | 59 | 80 | 7.0 | 13.0 | 0.00 | 0.17 | 0.02 | 82 | 1005.2 |
| 20260831073101 | 59 | 54 | 4.0 | 13.0 | 0.00 | 0.17 | 0.02 | 81 | 1005.0 |
| 20260831071547 | 59 | 59 | 6.0 | 12.0 | 0.00 | 0.17 | 0.02 | 82 | 1004.9 |
| 20260831070038 | 59 | 50 | 4.0 | 13.0 | 0.00 | 0.17 | 0.02 | 82 | 1004.9 |
| 20260831064534 | 59 | 32 | 6.0 | 13.0 | 0.00 | 0.17 | 0.02 | 82 | 1004.8 |
| 20260831063041 | 59 | 43 | 3.0 | 9.0 | 0.00 | 0.17 | 0.02 | 82 | 1004.8 |
| 20260831061531 | 58 | 40 | 3.0 | 7.0 | 0.00 | 0.17 | 0.02 | 81 | 1004.6 |
| 20260831060030 | 58 | 19 | 3.0 | 6.0 | 0.00 | 0.17 | 0.02 | 81 | 1004.6 |
| 20260831054529 | 58 | 27 | 5.0 | 10.0 | 0.00 | 0.17 | 0.02 | 81 | 1004.4 |
| 20260831053127 | 58 | 346 | 4.0 | 7.0 | 0.00 | 0.17 | 0.02 | 81 | 1004.3 |
| 20260831051530 | 58 | 38 | 5.0 | 10.0 | 0.00 | 0.17 | 0.02 | 81 | 1004.3 |
| 20260831050025 | 58 | 46 | 5.0 | 11.0 | 0.00 | 0.17 | 0.02 | 80 | 1004.3 |
| 20260831044524 | 57 | 62 | 4.0 | 9.0 | 0.00 | 0.17 | 0.02 | 78 | 1004.2 |
| 20260831043021 | 58 | 35 | 3.0 | 10.0 | 0.00 | 0.17 | 0.02 | 76 | 1004.1 |
| 20260831041520 | 58 | 32 | 1.0 | 5.0 | 0.00 | 0.17 | 0.02 | 78 | 1003.9 |
| 20260831040018 | 58 | 57 | 3.0 | 9.0 | 0.00 | 0.17 | 0.02 | 79 | 1003.9 |
| 20260831034526 | 58 | 42 | 5.0 | 10.0 | 0.00 | 0.17 | 0.02 | 80 | 1003.8 |
| 20260831033024 | 58 | 57 | 5.0 | 13.0 | 0.00 | 0.17 | 0.02 | 78 | 1003.6 |
| 20260831031516 | 58 | 55 | 7.0 | 14.0 | 0.00 | 0.17 | 0.02 | 77 | 1003.6 |
| 20260831030011 | 58 | 52 | 7.0 | 11.0 | 0.00 | 0.17 | 0.02 | 73 | 1003.6 |
| 20260831024509 | 58 | 57 | 4.0 | 9.0 | 0.00 | 0.17 | 0.02 | 71 | 1003.4 |
| 20260831023009 | 58 | 45 | 4.0 | 8.0 | 0.00 | 0.17 | 0.02 | 70 | 1003.5 |
| 20260831021512 | 58 | 45 | 4.0 | 8.0 | 0.01 | 0.17 | 0.02 | 70 | 1003.3 |
| 20260831020005 | 58 | 66 | 5.0 | 13.0 | 0.01 | 0.17 | 0.02 | 71 | 1003.3 |
| 20260831014502 | 59 | 57 | 3.0 | 9.0 | 0.01 | 0.17 | 0.02 | 65 | 1003.3 |
| 20260831013106 | 59 | 58 | 5.0 | 11.0 | 0.01 | 0.17 | 0.02 | 54 | 1003.2 |
| 20260831011554 | 59 | 50 | 4.0 | 10.0 | 0.00 | 0.16 | 0.02 | 46 | 1003.1 |
| 20260831010116 | 59 | 55 | 4.0 | 8.0 | 0.00 | 0.16 | 0.02 | 42 | 1002.9 |
| 20260831004558 | 59 | 38 | 5.0 | 8.0 | 0.00 | 0.16 | 0.02 | 40 | 1002.9 |
| 20260831003102 | 59 | 64 | 5.0 | 8.0 | 0.00 | 0.16 | 0.02 | 40 | 1002.8 |
| 20260831001549 | 59 | 73 | 5.0 | 10.0 | 0.00 | 0.16 | 0.02 | 42 | 1002.8 |
| 20260831000048 | 59 | 65 | 5.0 | 12.0 | 0.00 | 0.16 | 0.02 | 44 | 1002.7 |
| 20260830234546 | 59 | 57 | 7.0 | 13.0 | 0.00 | 0.16 | 0.02 | 46 | 1002.6 |
| 20260830233043 | 59 | 80 | 6.0 | 14.0 | 0.01 | 0.16 | 0.02 | 47 | 1002.3 |
| 20260830231540 | 60 | 55 | 9.0 | 18.0 | 0.02 | 0.16 | 0.02 | 46 | 1002.2 |
| 20260830230035 | 62 | 73 | 4.0 | 9.0 | 0.02 | 0.16 | 0.02 | 29 | 1001.7 |
| 20260830224534 | 62 | 77 | 5.0 | 10.0 | 0.02 | 0.16 | 0.02 | 28 | 1001.5 |
| 20260830223034 | 62 | 85 | 4.0 | 10.0 | 0.01 | 0.15 | 0.01 | 26 | 1001.5 |
| 20260830221530 | 61 | 37 | 4.0 | 9.0 | 0.00 | 0.14 | 0.00 | 26 | 1001.3 |
| 20260830220034 | 61 | 11 | 0.0 | 1.0 | 0.00 | 0.14 | 0.00 | 29 | 1001.2 |
| 20260830214527 | 61 | 12 | 0.0 | 2.0 | 0.00 | 0.14 | 0.14 | 30 | 1001.1 |